#timestamp,LO_Frequency,Hit,StdDev 
1564567215.5,286046995.2,N
1564567235.4,286046995.1,N
1564567255.2,286046996.0,N
1564567275.0,286046995.8,N
1564567275.9,286046995.8,N
1564567295.8,286046996.4,N
1564567315.6,286046993.9,N
1564567335.4,286046991.8,Y
1564567355.3,286046994.1,P
1564567375.1,286046992.8,P
1564567395.8,286046990.8,P
1564567415.7,286046988.7,Y
1564567435.5,286046993.8,P
1564567455.3,286046994.1,P
1564567475.2,286046992.3,P
1564567495.9,286046992.5,Y
1564567515.7,286046996.9,P
1564567535.6,286046999.2,N
1564567555.4,286046997.6,N
1564567575.2,286046998.0,N
1564567595.1,286046996.5,N
1564567596.0,286046996.5,N
1564567615.8,286046999.6,N
1564567635.6,286046996.8,N
1564567655.4,286046997.7,N
1564567675.3,286046995.4,N
1564567695.1,286046995.9,N
1564567715.8,286046995.7,N
1564567735.7,286046996.4,N
1564567755.5,286046993.3,Y
1564567775.3,286046997.2,P
1564567795.2,286046997.4,P
1564567815.9,286046997.9,P
1564567835.7,286046995.8,Y
1564567855.6,286046996.5,P
1564567875.4,286046997.2,P
1564567895.2,286046997.9,P
1564567915.1,286046999.1,N
1564567916.0,286046999.1,N
1564567935.8,286046999.0,N
1564567955.6,286046996.5,Y
1564567975.5,286047000.2,P
1564567995.3,286047000.4,N
1564568015.1,286046998.7,N
1564568035.9,286046999.1,N
1564568055.7,286046999.3,N
1564568075.5,286046999.5,N
1564568095.4,286046998.0,N
1564568115.2,286046997.8,N
1564568135.0,286046997.8,N
1564568135.9,286046997.8,N
1564568155.7,286046997.9,N
1564568175.6,286046995.1,Y
1564568195.4,286046996.9,P
1564568215.2,286046998.9,N
1564568235.1,286046998.5,N
1564568236.0,286046998.5,N
1564568255.8,286046998.4,N
1564568275.6,286047000.7,N
1564568295.5,286046998.1,N
1564568315.3,286046998.9,N
1564568335.1,286046998.9,N
1564568355.9,286046998.1,N
1564568375.7,286046998.1,N
1564568395.5,286047001.2,N
1564568415.4,286046999.9,N
1564568435.2,286047000.4,N
1564568455.0,286047002.1,N
1564568455.9,286047002.1,N
1564568475.7,286047001.0,N
1564568495.6,286047001.2,N
1564568515.4,286046998.7,N
1564568535.2,286047000.8,N
1564568555.1,286046998.4,N
1564568556.0,286046998.4,N
1564568575.8,286046996.6,N
1564568595.6,286046996.7,N
1564568615.5,286046998.4,N
1564568635.3,286047000.9,N
1564568655.1,286047000.4,N
1564568675.9,286047000.2,N
1564568695.7,286047002.8,N
1564568715.5,286047002.0,N
1564568735.3,286047003.8,N
1564568755.2,286047004.2,N
1564568775.0,286047003.7,N
1564568775.9,286047003.7,N
1564568795.7,286047003.3,N
1564568815.6,286047001.7,N
1564568835.4,286046999.9,N
1564568855.2,286047000.8,N
1564568875.1,286047000.3,N
1564568876.0,286047000.3,N
1564568895.8,286047000.6,N
1564568915.6,286047000.4,N
1564568935.5,286047002.0,N
1564568955.3,286047001.3,N
1564568975.1,286047001.4,N
1564568995.8,286047002.5,N
1564569015.7,286047004.2,N
1564569035.5,286047001.5,N
1564569055.3,286047003.0,N
1564569075.2,286047005.9,N
1564569095.9,286047004.8,N
1564569115.7,286047006.6,N
1564569135.6,286047011.2,Y
1564569155.4,286047015.4,P
1564569175.2,286047015.3,N
1564569195.1,286047015.7,N
1564569196.0,286047015.7,N
1564569215.8,286047018.4,Y
1564569235.6,286047004.1,P
1564569255.5,286047003.7,N
1564569275.3,286047004.0,N
1564569295.1,286047002.1,N
1564569315.9,286047001.4,N
1564569335.7,286047008.9,N
1564569355.5,286047007.7,N
1564569375.4,286047009.0,N
1564569395.2,286047008.6,N
1564569415.0,286047007.0,N
1564569415.9,286047007.0,N
1564569435.7,286047007.3,N
1564569455.6,286047007.3,N
1564569475.4,286047003.4,N
1564569495.2,286047001.9,N
1564569515.1,286046999.9,N
1564569516.0,286046999.9,N
1564569535.8,286047001.1,N
1564569555.6,286046999.0,N
1564569575.5,286046999.5,N
1564569595.3,286046997.0,N
1564569615.1,286046999.0,N
1564569635.9,286046998.6,N
1564569655.7,286046998.9,N
1564569675.5,286046999.5,N
1564569695.3,286046999.0,N
1564569715.2,286046998.1,N
1564569735.0,286046998.9,N
1564569735.9,286046998.9,N
1564569755.7,286046996.9,N
1564569775.6,286046997.0,N
1564569795.4,286046996.6,N
1564569815.2,286046998.1,N
1564569835.1,286046998.9,N
1564569836.0,286046998.9,N
1564569855.8,286047001.2,N
1564569875.6,286046997.7,N
1564569895.5,286046996.1,N
1564569915.3,286046997.6,N
1564569935.1,286046996.3,N
1564569955.9,286046994.0,N
1564569975.7,286046991.7,N
1564569995.5,286046993.4,N
1564570015.3,286046994.1,N
1564570035.2,286046993.9,N
1564570055.0,286046993.4,N
1564570055.9,286046993.4,N
1564570075.7,286046993.3,N
1564570095.6,286046996.3,N
1564570115.4,286046995.5,N
1564570135.2,286046997.3,N
1564570155.1,286046997.2,N
1564570156.0,286046997.2,N
1564570175.8,286046995.4,N
1564570195.6,286046995.6,N
1564570215.5,286046996.3,N
1564570235.3,286046994.0,N
1564570255.1,286046993.6,N
1564570275.9,286046993.3,Y
1564570295.7,286046998.4,P
1564570315.5,286046998.3,N
1564570335.4,286046997.2,N
1564570355.2,286046996.7,Y
1564570375.0,286047001.1,P
1564570375.9,286047001.1,N
1564570395.8,286047000.0,N
1564570415.6,286046998.4,N
1564570435.4,286046998.9,N
1564570455.2,286046998.6,N
1564570475.1,286046998.9,N
1564570476.0,286046998.9,N
1564570495.8,286046998.9,N
1564570515.6,286047000.8,N
1564570535.5,286046998.8,N
1564570555.3,286046998.6,N
1564570575.1,286046998.2,N
1564570595.9,286047000.8,N
1564570615.7,286046998.3,N
1564570635.5,286047000.8,N
1564570655.4,286047000.5,N
1564570675.2,286047000.3,N
1564570695.0,286047001.1,N
1564570695.9,286047001.1,N
1564570715.7,286046998.3,N
1564570735.6,286047000.8,N
1564570755.4,286047000.4,N
1564570775.2,286046999.7,N
1564570795.1,286047001.0,N
1564570796.0,286047001.0,N
